When you browse on this site, cookies collect data to enhance your experience and personalize the content and advertising you see.
Visit our Privacy Policy to learn more. By continuing to use the site, you agree to this use of cookies and data.
  • In Österreich
  • Länderverzeichnis
  • Für 7 Tage
  • Wassertemperatur
  • Satellitenkarten
  • Wetterkarte
  • News
  • Widgets
  • user-avatar
    Anmelden

    Stündliche Wetter Sheshurino

    Heute, 20 Februar, Mittwoch

    Zeit Temperatur Niederschläge Wind Luftdruck Luftfeuchtigkeit
    00:00 0°C° 0.1 mm 5 m/S 729 mmHg 92%
    01:00 0°C° 0.1 mm 4 m/S 729 mmHg 92%
    02:00 0°C° 0 mm 5 m/S 728 mmHg 92%
    03:00 0°C° 0.2 mm 5 m/S 728 mmHg 92%
    04:00 0°C° 0.2 mm 5 m/S 728 mmHg 92%
    05:00 0°C° 0.2 mm 4 m/S 728 mmHg 92%
    06:00 0°C° 0.1 mm 5 m/S 728 mmHg 92%
    07:00 0°C° 0.1 mm 5 m/S 728 mmHg 91%
    08:00 0°C° 0.1 mm 5 m/S 728 mmHg 90%
    09:00 0°C° 0.1 mm 5 m/S 727 mmHg 89%
    10:00 0°C° 0.1 mm 5 m/S 727 mmHg 88%
    11:00 0°C° 0.1 mm 5 m/S 727 mmHg 87%
    12:00 0°C° 0.4 mm 5 m/S 727 mmHg 87%
    13:00 0°C° 0.4 mm 5 m/S 726 mmHg 86%
    14:00 +1°C° 0.4 mm 5 m/S 726 mmHg 86%
    15:00 0°C° 0.6 mm 5 m/S 726 mmHg 86%
    16:00 0°C° 0.6 mm 5 m/S 725 mmHg 87%
    17:00 0°C° 0.6 mm 5 m/S 725 mmHg 88%
    18:00 -1°C° 0.5 mm 5 m/S 726 mmHg 85%
    19:00 -2°C° 0.5 mm 5 m/S 726 mmHg 82%
    20:00 -4°C° 0.5 mm 5 m/S 726 mmHg 79%
    21:00 -5°C° 0.2 mm 6 m/S 727 mmHg 79%
    22:00 -6°C° 0.2 mm 6 m/S 727 mmHg 79%
    23:00 -6°C° 0.2 mm 6 m/S 728 mmHg 78%

    Morgen, 21 Februar, Donnerstag

    Zeit Temperatur Niederschläge Wind Luftdruck Luftfeuchtigkeit
    00:00 -8°C° 0.2 mm 6 m/S 728 mmHg 79%
    01:00 -8°C° 0.2 mm 6 m/S 729 mmHg 80%
    02:00 -9°C° 0.2 mm 6 m/S 729 mmHg 81%
    03:00 -9°C° 0.2 mm 6 m/S 730 mmHg 80%
    04:00 -9°C° 0.2 mm 6 m/S 730 mmHg 80%
    05:00 -9°C° 0.2 mm 6 m/S 730 mmHg 79%
    06:00 -9°C° 0.2 mm 6 m/S 731 mmHg 79%
    07:00 -9°C° 0.2 mm 7 m/S 732 mmHg 79%
    08:00 -9°C° 0.2 mm 7 m/S 732 mmHg 79%
    09:00 -9°C° 0.1 mm 7 m/S 733 mmHg 78%
    10:00 -9°C° 0.1 mm 7 m/S 734 mmHg 76%
    11:00 -9°C° 0.1 mm 7 m/S 735 mmHg 74%
    12:00 -9°C° 0.1 mm 7 m/S 736 mmHg 73%
    13:00 -9°C° 0.1 mm 6 m/S 737 mmHg 71%
    14:00 -10°C° 0.1 mm 6 m/S 738 mmHg 70%
    15:00 -10°C° 0 mm 6 m/S 738 mmHg 70%
    16:00 -11°C° 0 mm 6 m/S 739 mmHg 71%
    17:00 -11°C° 0 mm 6 m/S 740 mmHg 71%
    18:00 -12°C° 0 mm 5 m/S 741 mmHg 72%
    19:00 -12°C° 0 mm 5 m/S 741 mmHg 72%
    20:00 -12°C° 0 mm 5 m/S 742 mmHg 72%
    21:00 -13°C° 0 mm 5 m/S 743 mmHg 72%
    22:00 -13°C° 0 mm 5 m/S 743 mmHg 73%
    23:00 -12°C° 0 mm 4 m/S 743 mmHg 73%

    übermorgen, 22 Februar, Freitag

    Zeit Temperatur Niederschläge Wind Luftdruck Luftfeuchtigkeit
    00:00 -14°C° 0 mm 4 m/S 744 mmHg 74%
    01:00 -14°C° 0 mm 4 m/S 744 mmHg 75%
    02:00 -14°C° 0 mm 4 m/S 745 mmHg 76%
    03:00 -15°C° 0 mm 4 m/S 745 mmHg 77%
    04:00 -15°C° 0 mm 4 m/S 746 mmHg 77%
    05:00 -15°C° 0 mm 4 m/S 746 mmHg 77%
    06:00 -15°C° 0 mm 5 m/S 747 mmHg 77%
    07:00 -15°C° 0 mm 5 m/S 747 mmHg 77%
    08:00 -14°C° 0 mm 5 m/S 748 mmHg 77%
    09:00 -15°C° 0 mm 6 m/S 748 mmHg 74%
    10:00 -14°C° 0 mm 6 m/S 748 mmHg 71%
    11:00 -12°C° 0 mm 6 m/S 749 mmHg 68%
    12:00 -12°C° 0 mm 7 m/S 749 mmHg 64%
    13:00 -12°C° 0 mm 7 m/S 749 mmHg 61%
    14:00 -12°C° 0 mm 7 m/S 749 mmHg 57%
    15:00 -12°C° 0 mm 7 m/S 750 mmHg 61%
    16:00 -11°C° 0 mm 6 m/S 750 mmHg 65%
    17:00 -11°C° 0 mm 6 m/S 751 mmHg 69%
    18:00 -12°C° 0.1 mm 6 m/S 751 mmHg 71%
    19:00 -12°C° 0.1 mm 6 m/S 752 mmHg 73%
    20:00 -14°C° 0.1 mm 6 m/S 752 mmHg 74%
    21:00 -13°C° 0 mm 5 m/S 752 mmHg 76%
    22:00 -14°C° 0 mm 4 m/S 753 mmHg 77%
    23:00 -14°C° 0 mm 4 m/S 753 mmHg 79%

    23 Februar, Samstag

    Zeit Temperatur Niederschläge Wind Luftdruck Luftfeuchtigkeit
    00:00 -14°C° 0 mm 4 m/S 753 mmHg 80%
    01:00 -15°C° 0 mm 4 m/S 754 mmHg 82%
    02:00 -15°C° 0 mm 4 m/S 754 mmHg 84%
    03:00 -14°C° 0 mm 3 m/S 754 mmHg 86%
    04:00 -15°C° 0 mm 3 m/S 754 mmHg 87%
    05:00 -15°C° 0 mm 3 m/S 754 mmHg 89%
    06:00 -15°C° 0 mm 3 m/S 755 mmHg 89%
    07:00 -15°C° 0 mm 3 m/S 755 mmHg 89%
    08:00 -15°C° 0 mm 3 m/S 755 mmHg 89%
    09:00 -13°C° 0 mm 2 m/S 755 mmHg 83%
    10:00 -12°C° 0 mm 2 m/S 755 mmHg 77%
    11:00 -10°C° 0 mm 2 m/S 755 mmHg 72%
    12:00 -9°C° 0 mm 2 m/S 755 mmHg 70%
    13:00 -9°C° 0 mm 2 m/S 755 mmHg 68%
    14:00 -8°C° 0 mm 2 m/S 754 mmHg 66%
    15:00 -8°C° 0 mm 2 m/S 754 mmHg 68%
    16:00 -8°C° 0 mm 2 m/S 754 mmHg 70%
    17:00 -8°C° 0 mm 2 m/S 754 mmHg 72%
    18:00 -8°C° 0 mm 2 m/S 753 mmHg 74%
    19:00 -8°C° 0 mm 2 m/S 753 mmHg 76%
    20:00 -8°C° 0 mm 2 m/S 753 mmHg 78%
    21:00 -8°C° 0.1 mm 2 m/S 752 mmHg 82%
    22:00 -9°C° 0.1 mm 3 m/S 752 mmHg 86%
    23:00 -9°C° 0.1 mm 3 m/S 751 mmHg 90%

    24 Februar, Sonntag

    Zeit Temperatur Niederschläge Wind Luftdruck Luftfeuchtigkeit
    00:00 -8°C° 0.1 mm 3 m/S 751 mmHg 91%
    01:00 -8°C° 0.1 mm 3 m/S 751 mmHg 91%
    02:00 -7°C° 0.1 mm 2 m/S 751 mmHg 92%
    03:00 -7°C° 0.1 mm 2 m/S 750 mmHg 93%
    04:00 -6°C° 0.1 mm 2 m/S 750 mmHg 94%
    05:00 -6°C° 0.1 mm 2 m/S 750 mmHg 95%
    06:00 -4°C° 0 mm 1 m/S 750 mmHg 95%
    07:00 -4°C° 0 mm 1 m/S 750 mmHg 96%
    08:00 -3°C° 0 mm 1 m/S 751 mmHg 96%
    09:00 -2°C° 0 mm 1 m/S 751 mmHg 94%
    10:00 -1°C° 0 mm 1 m/S 751 mmHg 92%
    11:00 -1°C° 0 mm 0 m/S 751 mmHg 90%
    12:00 -1°C° 0 mm 0 m/S 751 mmHg 90%
    13:00 0°C° 0 mm 0 m/S 751 mmHg 89%
    14:00 0°C° 0 mm 0 m/S 751 mmHg 89%
    15:00 +1°C° 0 mm 1 m/S 751 mmHg 91%
    16:00 +1°C° 0 mm 1 m/S 751 mmHg 93%
    17:00 0°C° 0 mm 1 m/S 751 mmHg 95%
    18:00 0°C° 0 mm 1 m/S 751 mmHg 96%
    19:00 0°C° 0 mm 1 m/S 751 mmHg 96%
    20:00 -1°C° 0 mm 1 m/S 751 mmHg 97%
    21:00 -1°C° 0 mm 1 m/S 751 mmHg 96%
    22:00 -2°C° 0 mm 2 m/S 751 mmHg 95%
    23:00 -2°C° 0 mm 2 m/S 751 mmHg 94%

    25 Februar, Montag

    Zeit Temperatur Niederschläge Wind Luftdruck Luftfeuchtigkeit
    00:00 -2°C° 0 mm 2 m/S 750 mmHg 93%
    01:00 -2°C° 0 mm 2 m/S 750 mmHg 92%
    02:00 -2°C° 0 mm 3 m/S 750 mmHg 91%
    03:00 -2°C° 0 mm 3 m/S 749 mmHg 92%
    04:00 -2°C° 0 mm 3 m/S 748 mmHg 92%
    05:00 -2°C° 0 mm 3 m/S 748 mmHg 93%
    06:00 -2°C° 0.1 mm 3 m/S 748 mmHg 94%
    07:00 -2°C° 0.1 mm 3 m/S 747 mmHg 94%
    08:00 -1°C° 0.1 mm 3 m/S 747 mmHg 95%
    09:00 -1°C° 0.1 mm 3 m/S 747 mmHg 93%
    10:00 -2°C° 0.1 mm 4 m/S 746 mmHg 92%
    11:00 -1°C° 0.1 mm 4 m/S 746 mmHg 90%
    12:00 -1°C° 0 mm 4 m/S 746 mmHg 89%
    13:00 -1°C° 0 mm 4 m/S 746 mmHg 87%
    14:00 -2°C° 0 mm 4 m/S 746 mmHg 85%
    15:00 -2°C° 0.1 mm 4 m/S 746 mmHg 85%
    16:00 -2°C° 0.1 mm 4 m/S 746 mmHg 84%
    17:00 -1°C° 0.1 mm 3 m/S 746 mmHg 84%
    18:00 -1°C° 0 mm 3 m/S 746 mmHg 85%
    19:00 -2°C° 0 mm 3 m/S 746 mmHg 87%
    20:00 -2°C° 0 mm 3 m/S 745 mmHg 88%
    21:00 -2°C° 0 mm 3 m/S 745 mmHg 89%
    22:00 -2°C° 0 mm 3 m/S 745 mmHg 89%
    23:00 -2°C° 0 mm 3 m/S 745 mmHg 89%
    Mehr zeigen